Skip Page Navigation
NASA JPL Caltech
NASA Logo - Jet Propulsion Laboratory + View the NASA Portal
+ Center for Near-Earth Object Studies
JPL Home Earth Solar System Stars & Galaxies Technology
JPL Solar System Dynamics
BODIES ORBITS EPHEMERIDES TOOLS PHYSICAL DATA DISCOVERY FAQ SITE MAP
IMPORTANT: The SSD Announcement email list is now available. Major changes are coming in the near future, including possible hostname and/or URL changes. To be notified of such changes, subscribe to this email list.

Please visit this page for more details.


JPL Small-Body Database Browser
Search: [ help ]  
154447 (2003 CZ1)
Classification: Main-belt Asteroid          SPK-ID: 2154447
Ephemeris | Orbit Diagram | Orbital Elements | Mission Design | Physical Parameters | Discovery Circumstances ]

[ show orbit diagram ]
Orbital Elements at Epoch 2459000.5 (2020-May-31.0) TDB
Reference: JPL 7 (heliocentric ecliptic J2000)
 Element Value Uncertainty (1-sigma)   Units 
e .130825302798514 5.4773e-08  
a 2.423809172069868 1.5543e-08 au
q 2.106713603208012 1.3338e-07 au
i 3.57097782050495 6.1494e-06 deg
node 112.8774089840076 0.00010361 deg
peri 77.43616865201201 0.00010801 deg
M 168.644174723619 3.0993e-05 deg
tp 2458354.823608093404
(2018-Aug-24.32360809)
0.00011529 TDB
period 1378.307323495238
3.77
1.3258e-05
3.63e-08
d
yr
n .2611899348304115 2.5123e-09 deg/d
Q 2.740904740931724 1.7576e-08 au
  Orbit Determination Parameters
   # obs. used (total)      252  
   data-arc span      9430 days (25.82 yr)  
   first obs. used      1992-03-30  
   last obs. used      2018-01-23  
   planetary ephem.      DE431  
   SB-pert. ephem.      SB431-N16  
   condition code      0  
   norm. resid. RMS      .67521  
   source      ORB  
   producer      Otto Matic  
   solution date      2018-Feb-06 07:37:19  

Additional Information
 Earth MOID = 1.11049 au 
 Jupiter MOID = 2.21843 au 
 T_jup = 3.497 
[ show covariance matrix ]

Ephemeris | Orbit Diagram | Orbital Elements | Mission Design | Physical Parameters | Discovery Circumstances ]

Physical Parameter Table
Parameter Symbol Value Units Sigma Reference Notes
absolute magnitude H 16.8   n/a MPO390772  

154447 (2003 CZ1)          Discovered 2003-Feb-01 by LINEAR at Socorro
Reference: 20070402/Numbers.arcLast Updated: 2007-04-04
Ephemeris | Orbit Diagram | Orbital Elements | Mission Design | Physical Parameters | Discovery Circumstances ]
ABOUT SSD CREDITS/AWARDS PRIVACY/COPYRIGHT GLOSSARY LINKS
FirstGov 2020-Feb-25 22:33 UT
(server date/time)  
NASA Home Page
Site Manager:   Ryan S. Park
Webmaster  Alan B. Chamberlin